Total_Precipitation_Accumulation
0.05 0.06 0.10 0.10 0.14 0.16 0.18 0.27 0.38 0.37 0.30 0.40 0.60 0.88 1.01 0.99 1.09 1.33 1.45 1.55 1.55 1.62 1.95 2.44 3.04 3.70 4.53 5.68 6.37 6.52 6.33 5.70 5.21 4.80 4.56 4.29 4.09 3.78 3.25 2.88 2.69 2.61 2.49 2.50
0.05 0.07 0.08 0.08 0.08 0.10 0.14 0.23 0.30 0.29 0.24 0.27 0.56 0.98 1.10 1.10 1.19 1.26 1.36 1.40 1.31 1.46 1.86 2.49 3.19 3.96 4.66 5.22 5.57 5.68 5.37 4.67 4.22 4.00 3.99 3.72 3.52 3.20 2.99 2.75 2.81 2.43 2.30 2.41
0.08 0.09 0.06 0.06 0.07 0.11 0.16 0.22 0.26 0.30 0.26 0.31 0.58 1.22 1.40 1.27 1.24 1.24 1.19 1.15 1.22 1.47 2.04 2.84 3.60 4.35 4.66 4.68 4.44 4.16 4.02 3.71 3.66 3.66 3.50 3.28 3.23 2.99 2.83 2.65 2.62 2.29 2.03 2.05
0.07 0.09 0.06 0.06 0.09 0.10 0.17 0.17 0.17 0.19 0.28 0.56 0.69 1.37 1.47 1.41 1.39 1.31 1.33 1.28 1.36 1.64 2.20 2.90 3.40 3.63 3.76 3.68 3.38 3.24 3.21 3.19 3.19 3.12 3.03 2.76 2.65 2.64 2.50 2.44 2.49 2.39 2.08 2.01
0.07 0.09 0.10 0.08 0.10 0.10 0.13 0.12 0.16 0.22 0.38 0.63 0.76 1.12 1.47 1.41 1.56 1.22 1.10 1.18 1.25 1.50 1.82 1.98 2.18 2.33 2.43 2.43 2.58 2.68 2.85 3.02 2.95 2.92 2.96 2.93 2.64 2.58 2.55 2.56 2.70 2.63 2.37 2.14
0.08 0.07 0.08 0.08 0.08 0.09 0.11 0.13 0.22 0.36 0.63 1.13 1.03 1.17 1.54 1.48 1.38 1.08 0.95 0.97 1.12 1.23 1.25 1.34 1.43 1.55 1.74 1.75 2.00 2.21 2.35 2.52 2.71 2.77 2.65 2.61 2.59 2.66 2.72 2.70 2.57 2.39 2.30 2.22
0.16 0.13 0.10 0.10 0.10 0.12 0.12 0.22 0.59 1.02 1.40 1.42 0.88 1.00 1.44 1.32 1.00 0.76 0.74 0.75 0.75 0.89 1.06 1.33 1.36 1.45 1.61 1.52 1.67 1.93 1.96 1.99 2.14 2.19 2.20 2.27 2.45 2.52 2.38 2.30 2.27 2.14 1.92 1.97
0.22 0.22 0.15 0.11 0.12 0.13 0.14 0.24 0.52 0.81 0.90 0.99 0.99 1.48 1.65 1.06 0.75 0.60 0.62 0.63 0.63 0.82 0.96 1.16 1.04 1.12 1.27 1.27 1.41 1.58 1.65 1.71 1.78 1.92 2.07 2.03 2.15 2.14 2.06 2.19 2.06 1.96 1.70 1.63
0.13 0.15 0.14 0.13 0.14 0.14 0.15 0.19 0.25 0.33 0.44 0.85 1.30 1.59 1.49 1.01 0.85 0.69 0.63 0.67 0.66 0.64 0.79 0.89 0.82 0.75 0.91 1.08 1.23 1.33 1.39 1.52 1.58 1.76 1.87 1.84 1.89 1.99 2.07 2.09 2.01 1.81 1.85 1.71
0.08 0.10 0.13 0.13 0.15 0.16 0.16 0.21 0.26 0.35 0.51 0.81 1.24 1.72 1.94 1.45 0.92 0.82 0.77 0.76 0.76 0.70 0.76 0.80 0.77 0.69 0.78 0.93 1.21 1.28 1.30 1.46 1.52 1.68 1.73 1.56 1.72 1.85 2.03 2.00 1.93 1.85 1.86 1.85
0.08 0.11 0.15 0.17 0.17 0.21 0.22 0.20 0.25 0.33 0.36 0.59 1.14 1.45 1.17 1.12 0.92 0.99 0.95 0.83 0.80 0.76 0.81 0.80 0.79 0.73 0.71 0.79 1.03 1.11 1.28 1.41 1.49 1.63 1.77 1.79 1.79 1.71 1.86 1.92 1.90 1.92 1.93 1.92
0.07 0.13 0.18 0.19 0.18 0.20 0.23 0.24 0.26 0.33 0.37 0.41 0.63 0.92 0.80 0.99 0.97 0.98 1.06 1.00 0.89 0.69 0.65 0.76 0.86 0.89 0.78 0.74 0.85 1.02 1.22 1.39 1.47 1.62 1.79 1.87 2.05 1.98 1.91 1.90 1.97 2.04 2.14 2.24
0.07 0.12 0.22 0.31 0.33 0.27 0.20 0.19 0.22 0.26 0.29 0.37 0.62 0.85 0.76 0.83 0.85 0.83 1.00 1.11 0.96 0.83 0.74 0.83 0.97 0.90 0.92 0.88 0.90 1.02 1.21 1.45 1.64 1.77 1.90 2.04 2.14 2.04 1.95 2.08 2.18 2.20 2.36 2.54
0.07 0.08 0.15 0.32 0.37 0.38 0.29 0.21 0.21 0.20 0.24 0.32 0.43 0.70 0.77 0.84 0.80 0.89 0.96 1.01 1.03 0.98 0.89 0.88 0.92 0.90 1.00 1.17 1.23 1.32 1.58 1.65 1.67 1.91 2.14 2.23 2.29 2.19 2.14 2.26 2.37 2.37 2.45 2.61
0.06 0.07 0.09 0.13 0.18 0.23 0.27 0.23 0.19 0.16 0.16 0.24 0.38 0.57 0.72 0.87 0.96 1.01 0.98 0.93 0.87 0.85 0.84 0.77 0.80 0.91 1.03 1.19 1.31 1.46 1.52 1.72 1.84 2.11 2.27 2.30 2.41 2.41 2.43 2.55 2.57 2.49 2.53 2.57
0.11 0.09 0.09 0.10 0.12 0.17 0.20 0.22 0.17 0.15 0.14 0.19 0.36 0.66 0.74 0.86 0.98 1.02 0.95 0.90 0.87 0.87 0.89 0.94 0.97 1.04 1.16 1.21 1.33 1.46 1.55 1.78 2.03 2.27 2.55 2.60 2.66 2.63 2.70 2.84 2.90 2.82 2.82 2.95
0.16 0.14 0.15 0.17 0.17 0.18 0.23 0.22 0.20 0.22 0.21 0.27 0.42 0.62 0.73 0.85 0.96 1.10 1.08 0.99 0.97 1.01 1.04 1.10 1.23 1.23 1.24 1.29 1.42 1.60 1.75 1.97 2.15 2.32 2.56 2.74 2.83 2.89 2.97 3.04 3.05 3.01 3.12 3.31
0.22 0.23 0.25 0.22 0.28 0.33 0.28 0.27 0.26 0.31 0.34 0.38 0.52 0.61 0.85 1.06 1.16 1.36 1.41 1.23 1.14 1.06 1.05 1.16 1.35 1.41 1.38 1.42 1.55 1.79 1.98 2.25 2.48 2.59 2.68 2.80 2.90 2.96 3.03 3.10 3.00 3.04 3.19 3.25
0.24 0.30 0.35 0.32 0.36 0.36 0.39 0.42 0.45 0.51 0.65 0.64 0.77 0.91 1.09 1.23 1.26 1.40 1.29 1.16 1.12 1.13 1.22 1.31 1.44 1.51 1.59 1.66 1.78 1.89 2.04 2.29 2.57 2.78 2.77 2.74 2.86 2.99 3.05 3.06 3.06 3.12 3.17 3.06
0.35 0.36 0.48 0.45 0.51 0.56 0.58 0.60 0.58 0.68 1.22 1.21 1.21 1.20 1.26 1.33 1.63 1.62 1.32 1.18 1.18 1.23 1.29 1.39 1.49 1.52 1.60 1.69 1.73 1.84 2.05 2.31 2.55 2.76 2.84 2.84 2.95 3.02 3.04 3.14 3.20 3.14 3.09 3.00
0.58 0.62 0.60 0.62 0.73 0.73 0.63 0.60 0.64 1.11 1.55 1.38 1.36 1.39 1.40 1.59 1.69 1.59 1.42 1.38 1.33 1.36 1.46 1.49 1.54 1.53 1.52 1.63 1.74 1.88 2.01 2.17 2.40 2.64 2.86 3.07 3.20 3.22 3.22 3.25 3.15 3.07 2.98 3.00
0.75 0.82 0.84 0.86 1.13 1.26 0.85 0.70 1.04 1.43 1.26 1.40 1.53 1.50 1.51 1.55 1.50 1.48 1.46 1.46 1.43 1.42 1.48 1.49 1.53 1.63 1.70 1.80 1.90 1.98 1.94 2.06 2.29 2.41 2.63 2.79 2.97 3.09 3.07 3.14 3.08 3.13 3.07 2.93
1.00 1.02 1.09 1.23 1.41 1.25 1.02 1.05 1.22 1.28 1.36 1.42 1.59 1.69 1.62 1.69 1.64 1.47 1.49 1.46 1.59 1.69 1.72 1.66 1.57 1.65 1.84 1.92 1.98 2.05 2.04 1.99 2.07 2.22 2.42 2.65 2.82 3.09 3.23 3.26 3.20 3.09 2.99 2.78
1.24 1.01 1.15 1.49 1.55 1.43 1.34 1.28 1.27 1.30 1.39 1.45 1.58 1.72 1.79 1.73 1.59 1.53 1.48 1.39 1.36 1.45 1.50 1.65 1.62 1.68 2.04 2.02 1.96 2.00 2.06 2.05 2.11 2.22 2.32 2.49 2.63 2.82 3.08 3.17 3.10 2.93 2.67 2.50
1.43 1.45 1.46 1.72 1.79 1.57 1.49 1.42 1.48 1.47 1.45 1.44 1.53 1.63 1.69 1.57 1.51 1.54 1.58 1.44 1.37 1.41 1.39 1.40 1.49 1.57 1.70 1.81 1.84 1.84 1.91 2.01 2.05 2.09 2.11 2.15 2.34 2.54 2.73 2.77 2.69 2.54 2.41 2.48
1.30 1.60 1.86 2.03 1.82 1.82 1.84 1.68 1.66 1.74 1.74 1.73 1.73 1.89 1.86 1.61 1.55 1.50 1.45 1.39 1.29 1.25 1.35 1.41 1.39 1.43 1.53 1.61 1.72 1.80 1.95 2.10 2.17 2.13 2.07 1.99 1.95 2.06 2.34 2.62 2.70 2.59 2.38 2.40